Regional Weather Roundup
Issued by NWS Charleston, WV

Home | Current Version | Previous Version | Text Only | Print | Product List | Glossary Off
Versions: 1 2 3 4 5 6 7 8 9 10 11 12 13 14 15 16 17 18 19 20 21 22 23 24 25 26 27 28 29 30 31 32 33 34 35 36 37 38 39 40 41 42 43 44 45 46 47 48 49 50

000
ASUS41 KRLX 190810
RWRRLX
West Virginia Regional Weather Roundup
National Weather Service Charleston WV
300 AM EST THU JAN 19 2017

Note: "fair" indicates few or no clouds below 12,000 feet with no
significant weather and/or obstructions to visibility.

WVZ003-190900-
Northern Panhandle of West Virginia

CITY           SKY/WX    TMP DP  RH WIND       PRES   REMARKS
WHEELING       CLOUDY    37  34  89 SW7       30.10R
$$

WVZ009-190900-
Northwest West Virginia

CITY           SKY/WX    TMP DP  RH WIND       PRES   REMARKS
PARKERSBURG    CLOUDY    40  35  83 CALM      30.16S
$$

WVZ006-190900-
Western West Virginia

CITY           SKY/WX    TMP DP  RH WIND       PRES   REMARKS
HUNTINGTON     CLOUDY    43  37  79 SW3       30.13R
$$

WVZ015-190900-
West Central West Virginia

CITY           SKY/WX    TMP DP  RH WIND       PRES   REMARKS
CHARLESTON     CLOUDY    43  37  79 CALM      30.12R
$$

WVZ022-031-190900-
North Central West Virginia

CITY           SKY/WX    TMP DP  RH WIND       PRES   REMARKS
CLARKSBURG     CLOUDY    40  35  83 W5        30.12S
MORGANTOWN     CLOUDY    39  34  82 CALM      30.12R
$$

WVZ025-035-042-045-190900-
Southern West Virginia

CITY           SKY/WX    TMP DP  RH WIND       PRES   REMARKS
BECKLEY        CLOUDY    36  35  96 SW3       30.08S
LOGAN            N/A     39  37  93 CALM      30.10F
BLUEFIELD      CLOUDY    33  31  92 W7        30.08S
LEWISBURG      CLOUDY    37  35  92 CALM      30.09R
$$

WVZ047-190900-
Northern Mountains of West Virginia

CITY           SKY/WX    TMP DP  RH WIND       PRES   REMARKS
ELKINS         CLOUDY    38  34  85 W3        30.11R
$$

WVZ052-190900-
Eastern Panhandle of West Virginia

CITY           SKY/WX    TMP DP  RH WIND       PRES   REMARKS
MARTINSBURG    CLOUDY    43  34  70 W5        30.08S
PETERSBURG     CLOUDY    31  30  98 CALM      30.10F
$$



USA.gov is the U.S. government's official web portal to all federal, state and local government web resources and services.